Location: Clarks Summit,Pa.
(41.5000°N, 75.6000°W)
Time: 21:08:59
(UTC-05:00)

N. Korean satellite - Visible Passes

Search period start: 18 February 2018 00:00
Search period end: 28 February 2018 00:00
Orbit: 459 x 514 km, 97.2° (Epoch: 17 February)

Date Brightness Start Highest point End Pass type
(mag) Time Alt. Az. Time Alt. Az. Time Alt. Az.
18 Feb 8.6 06:15:57 10° NNE 06:19:19 34° E 06:22:42 10° SSE visible
18 Feb 8.5 18:25:42 10° SSW 18:28:49 33° W 18:32:01 10° NNW visible
19 Feb 9.9 05:52:53 10° NE 05:55:29 18° E 05:58:04 10° SE visible
19 Feb 6.8 18:01:37 10° S 18:05:02 73° WSW 18:08:31 10° NNW visible
21 Feb 9.8 18:48:50 10° SW 18:51:12 17° W 18:53:37 10° NW visible
22 Feb 8.7 06:14:28 10° NNE 06:17:51 34° E 06:21:16 10° SSE visible
22 Feb 8.4 18:24:09 10° SSW 18:27:20 34° W 18:30:33 10° NNW visible
23 Feb 10.0 05:51:26 10° NE 05:54:00 18° E 05:56:35 10° SE visible
25 Feb 9.8 18:47:12 10° SW 18:49:40 18° W 18:52:10 10° NW visible
26 Feb 8.4 18:22:33 10° SSW 18:25:47 36° W 18:29:04 10° NNW visible
27 Feb 10.1 05:49:56 10° NE 05:52:29 17° E 05:55:02 10° SE visible
